This is the latest recevied weather packets stored in our database for station/object KF4WSW-13. If no packets are shown the sender has not sent any weather packets the latest 1 day(s).
| Time | Temp. | Humidity | Pressure | Rain* | Wind** | Luminosity | Snow |
|---|---|---|---|---|---|---|---|
| 1778010718 | 27.78° C | 64% | 1013.1 hPa | 0 mm | 0.89 m/s, 262° | 448 W/m² | - |
| 1778010415 | 27.78° C | 64% | 1013.2 hPa | 0 mm | 1.79 m/s, 321° | 578 W/m² | - |
| 1778010111 | 27.78° C | 64% | 1013.3 hPa | 0 mm | 2.68 m/s, 325° | 664 W/m² | - |
| 1778009808 | 28.33° C | 62% | 1013.4 hPa | 0 mm | 0.89 m/s, 289° | 676 W/m² | - |
| 1778009505 | 27.78° C | 64% | 1013.5 hPa | 0 mm | 1.34 m/s, 249° | 587 W/m² | - |
| 1778009203 | 27.78° C | 63% | 1013.4 hPa | 0 mm | 1.79 m/s, 293° | 654 W/m² | - |
| 1778008901 | 27.22° C | 65% | 1013.4 hPa | 0 mm | 2.24 m/s, 318° | 633 W/m² | - |
| 1778008599 | 28.33° C | 63% | 1013.6 hPa | 0 mm | 0.45 m/s, 275° | 671 W/m² | - |
| 1778008297 | 27.78° C | 63% | 1013.3 hPa | 0 mm | 0.89 m/s, 288° | 719 W/m² | - |
| 1778007992 | 27.78° C | 64% | 1013.4 hPa | 0 mm | 1.34 m/s, 331° | 739 W/m² | - |
| 1778007687 | 28.33° C | 63% | 1013.4 hPa | 0 mm | 0.89 m/s, 296° | 744 W/m² | - |
| 1778007384 | 28.33° C | 62% | 1013.4 hPa | 0 mm | 1.34 m/s, 284° | 699 W/m² | - |
| 1778007080 | 28.89° C | 62% | 1013.4 hPa | 0 mm | 0.89 m/s, 300° | 650 W/m² | - |
| 1778006777 | 28.33° C | 61% | 1013.4 hPa | 0 mm | 0.89 m/s, 238° | 681 W/m² | - |
| 1778006474 | 28.33° C | 61% | 1013.5 hPa | 0 mm | 1.79 m/s, 318° | 654 W/m² | - |
| 1778006170 | 28.33° C | 63% | 1013.6 hPa | 0 mm | 1.34 m/s, 327° | 761 W/m² | - |
| 1778005869 | 27.22° C | 64% | 1013.6 hPa | 0 mm | 1.34 m/s, 300° | 759 W/m² | - |
| 1778005564 | 27.78° C | 64% | 1013.7 hPa | 0 mm | 0.89 m/s, 260° | 710 W/m² | - |
| 1778005261 | 28.33° C | 61% | 1013.7 hPa | 0 mm | 1.34 m/s, 296° | 208 W/m² | - |
| 1778004958 | 28.89° C | 61% | 1013.9 hPa | 0 mm | 1.34 m/s, 310° | 206 W/m² | - |
| 1778004655 | 29.44° C | 59% | 1013.4 hPa | 0 mm | 1.34 m/s, 274° | 245 W/m² | - |
| 1778004350 | 28.89° C | 60% | 1013.5 hPa | 0 mm | 1.34 m/s, 235° | 743 W/m² | - |
| 1778004049 | 28.33° C | 61% | 1013.6 hPa | 0 mm | 1.34 m/s, 309° | 262 W/m² | - |
| 1778003749 | 28.89° C | 61% | 1013.7 hPa | 0 mm | 1.79 m/s, 339° | 362 W/m² | - |
| 1778003446 | 27.22° C | 63% | 1013.8 hPa | 0 mm | 0.89 m/s, 261° | 881 W/m² | - |
* Rain latest hour (hover to see other rain measurements)
** Current wind speed in m/s (hover to see current wind gust speed)